SB KEPS @ AMSAT $ORB11272.O Orbital Elements 11272.OSCAR
HR AMSAT ORBITAL ELEMENTS FOR OSCAR SATELLITES FROM WA5QGD FORT WORTH,TX September 29, 2011 Send Subscribe/unsubscribe to KEPS at http://www.amsat.org/mailman/listinfo/keps BID: ORB11272.O TO ALL RADIO AMATEURS BT
Satellite: AO-07 Catalog number: 07530 Epoch time: 11271.58464441 Element set: 191 Inclination: 101.3975 deg RA of node: 274.0584 deg Eccentricity: 0.0012103 Arg of perigee: 076.8194 deg Mean anomaly: 283.4227 deg Mean motion: 12.53584145 rev/day Decay rate: -2.7e-07 rev/day^2 Epoch rev: 68714 Checksum: 292
Satellite: FO-29 Catalog number: 24278 Epoch time: 11271.95681867 Element set: 0674 Inclination: 098.5630 deg RA of node: 042.1719 deg Eccentricity: 0.0350867 Arg of perigee: 348.5077 deg Mean anomaly: 010.8199 deg Mean motion: 13.52964594 rev/day Decay rate: -5.6e-07 rev/day^2 Epoch rev: 74649 Checksum: 360
Satellite: SO-33 Catalog number: 25509 Epoch time: 11271.66899932 Element set: 0065 Inclination: 031.4319 deg RA of node: 018.9974 deg Eccentricity: 0.0353230 Arg of perigee: 066.6620 deg Mean anomaly: 297.0770 deg Mean motion: 14.28450603 rev/day Decay rate: 3.88e-06 rev/day^2 Epoch rev: 67508 Checksum: 323
Satellite: RS-22 Catalog number: 27939 Epoch time: 11272.27404632 Element set: 671 Inclination: 097.8324 deg RA of node: 121.2355 deg Eccentricity: 0.0013902 Arg of perigee: 020.3342 deg Mean anomaly: 339.8396 deg Mean motion: 14.63660216 rev/day Decay rate: 7.61e-06 rev/day^2 Epoch rev: 42756 Checksum: 294
Satellite: VO-52 Catalog number: 28650 Epoch time: 11271.72538272 Element set: 910 Inclination: 097.6321 deg RA of node: 310.1739 deg Eccentricity: 0.0026701 Arg of perigee: 179.6582 deg Mean anomaly: 180.4697 deg Mean motion: 14.82209049 rev/day Decay rate: 1.343e-05 rev/day^2 Epoch rev: 34608 Checksum: 307
Satellite: SO-67 Catalog number: 35870 Epoch time: 11271.90534198 Element set: 0264 Inclination: 097.2697 deg RA of node: 311.7702 deg Eccentricity: 0.0003159 Arg of perigee: 054.7385 deg Mean anomaly: 048.4366 deg Mean motion: 15.21224301 rev/day Decay rate: 6.158e-05 rev/day^2 Epoch rev: 11270 Checksum: 302
Satellite: HO-68 Catalog number: 36122 Epoch time: 11272.21738486 Element set: 784 Inclination: 100.4042 deg RA of node: 331.4013 deg Eccentricity: 0.0007605 Arg of perigee: 350.4366 deg Mean anomaly: 009.6605 deg Mean motion: 13.16288274 rev/day Decay rate: -4.4e-07 rev/day^2 Epoch rev: 8592 Checksum: 282
/EX SB KEPS @ AMSAT $ORB11272.D Orbital Elements 11272.MICROS
HR AMSAT ORBITAL ELEMENTS FOR THE MICROSATS FROM WA5QGD FORT WORTH,TX September 29, 2011 Send Subscribe/unsubscribe to KEPS at http://www.amsat.org/mailman/listinfo/keps BID: ORB11272.D TO ALL RADIO AMATEURS BT
Satellite: UO-11 Catalog number: 14781 Epoch time: 11271.91740471 Element set: 0666 Inclination: 097.9946 deg RA of node: 328.2387 deg Eccentricity: 0.0009284 Arg of perigee: 156.5231 deg Mean anomaly: 203.6408 deg Mean motion: 14.80052190 rev/day Decay rate: 7.44e-06 rev/day^2 Epoch rev: 48113 Checksum: 304
Satellite: AO-16 Catalog number: 20439 Epoch time: 11271.85754595 Element set: 0304 Inclination: 098.3949 deg RA of node: 218.0607 deg Eccentricity: 0.0010224 Arg of perigee: 213.0583 deg Mean anomaly: 146.9962 deg Mean motion: 14.31944614 rev/day Decay rate: 1.69e-06 rev/day^2 Epoch rev: 13245 Checksum: 304
Satellite: LO-19 Catalog number: 20442 Epoch time: 11271.92083642 Element set: 0224 Inclination: 098.3577 deg RA of node: 222.0799 deg Eccentricity: 0.0011487 Arg of perigee: 205.2255 deg Mean anomaly: 154.8370 deg Mean motion: 14.32168127 rev/day Decay rate: 1.16e-06 rev/day^2 Epoch rev: 13264 Checksum: 285
Satellite: AO-27 Catalog number: 22825 Epoch time: 11271.89253382 Element set: 0927 Inclination: 098.5422 deg RA of node: 214.2490 deg Eccentricity: 0.0008347 Arg of perigee: 336.6567 deg Mean anomaly: 023.4234 deg Mean motion: 14.29367567 rev/day Decay rate: 2.22e-06 rev/day^2 Epoch rev: 93900 Checksum: 313
Satellite: IO-26 Catalog number: 22826 Epoch time: 11271.87290535 Element set: 0683 Inclination: 098.5348 deg RA of node: 214.6729 deg Eccentricity: 0.0008636 Arg of perigee: 331.1000 deg Mean anomaly: 028.9702 deg Mean motion: 14.29632417 rev/day Decay rate: 1.67e-06 rev/day^2 Epoch rev: 93912 Checksum: 310
Satellite: GO-32 Catalog number: 25397 Epoch time: 11271.68024889 Element set: 590 Inclination: 098.3349 deg RA of node: 258.7547 deg Eccentricity: 0.0001124 Arg of perigee: 024.2985 deg Mean anomaly: 335.8253 deg Mean motion: 14.23220914 rev/day Decay rate: -2.3e-07 rev/day^2 Epoch rev: 68668 Checksum: 322
Satellite: NO-44 Catalog number: 26931 Epoch time: 11271.57740510 Element set: 0861 Inclination: 067.0502 deg RA of node: 077.1136 deg Eccentricity: 0.0004986 Arg of perigee: 259.6088 deg Mean anomaly: 100.4419 deg Mean motion: 14.29683856 rev/day Decay rate: -4.6e-07 rev/day^2 Epoch rev: 52170 Checksum: 303
Satellite: SO-50 Catalog number: 27607 Epoch time: 11271.55044697 Element set: 576 Inclination: 064.5600 deg RA of node: 013.5576 deg Eccentricity: 0.0080631 Arg of perigee: 299.5414 deg Mean anomaly: 059.7669 deg Mean motion: 14.71835018 rev/day Decay rate: 8.47e-06 rev/day^2 Epoch rev: 47130 Checksum: 321
Satellite: CO-55 Catalog number: 27844 Epoch time: 11271.55493065 Element set: 0209 Inclination: 098.7059 deg RA of node: 278.7665 deg Eccentricity: 0.0008991 Arg of perigee: 260.7051 deg Mean anomaly: 099.3118 deg Mean motion: 14.20852416 rev/day Decay rate: 5.33e-06 rev/day^2 Epoch rev: 42759 Checksum: 334
Satellite: CO-57 Catalog number: 27848 Epoch time: 11271.51452063 Element set: 0156 Inclination: 098.7110 deg RA of node: 277.9513 deg Eccentricity: 0.0009079 Arg of perigee: 264.7115 deg Mean anomaly: 095.3042 deg Mean motion: 14.20626545 rev/day Decay rate: 4.54e-06 rev/day^2 Epoch rev: 42753 Checksum: 304
Satellite: AO-51 Catalog number: 28375 Epoch time: 11271.44939450 Element set: 0083 Inclination: 098.1101 deg RA of node: 244.5310 deg Eccentricity: 0.0084317 Arg of perigee: 116.4056 deg Mean anomaly: 244.5835 deg Mean motion: 14.40784421 rev/day Decay rate: 1.29e-06 rev/day^2 Epoch rev: 38093 Checksum: 288
Satellite: CP3 Catalog number: 31129 Epoch time: 11271.68507037 Element set: 980 Inclination: 097.8941 deg RA of node: 289.9029 deg Eccentricity: 0.0100698 Arg of perigee: 218.6059 deg Mean anomaly: 140.7798 deg Mean motion: 14.52579282 rev/day Decay rate: 5.66e-06 rev/day^2 Epoch rev: 23586 Checksum: 347
Satellite: CO-65 Catalog number: 32785 Epoch time: 11271.64513719 Element set: 0111 Inclination: 097.8393 deg RA of node: 333.5053 deg Eccentricity: 0.0014399 Arg of perigee: 195.3225 deg Mean anomaly: 164.7565 deg Mean motion: 14.82156313 rev/day Decay rate: 1.641e-05 rev/day^2 Epoch rev: 18486 Checksum: 317
Satellite: PRISM Catalog number: 33493 Epoch time: 11271.87827452 Element set: 0004 Inclination: 098.1387 deg RA of node: 042.0979 deg Eccentricity: 0.0020618 Arg of perigee: 067.6287 deg Mean anomaly: 292.7073 deg Mean motion: 14.82023307 rev/day Decay rate: 4.604e-05 rev/day^2 Epoch rev: 14487 Checksum: 307
Satellite: SOHLA-1 Catalog number: 33496 Epoch time: 11271.94730327 Element set: 0538 Inclination: 098.0886 deg RA of node: 020.7741 deg Eccentricity: 0.0006910 Arg of perigee: 145.8518 deg Mean anomaly: 214.3132 deg Mean motion: 14.69673014 rev/day Decay rate: 5.95e-06 rev/day^2 Epoch rev: 14372 Checksum: 300
Satellite: TISAT-1 Catalog number: 36799 Epoch time: 11271.93767289 Element set: 0276 Inclination: 098.0929 deg RA of node: 341.1757 deg Eccentricity: 0.0013958 Arg of perigee: 303.6531 deg Mean anomaly: 056.3339 deg Mean motion: 14.80769477 rev/day Decay rate: 2.905e-05 rev/day^2 Epoch rev: 06566 Checksum: 355
Satellite: STUDSAT Catalog number: 36801 Epoch time: 11271.79632649 Element set: 248 Inclination: 098.0958 deg RA of node: 340.9751 deg Eccentricity: 0.0012617 Arg of perigee: 292.2724 deg Mean anomaly: 067.7149 deg Mean motion: 14.81156711 rev/day Decay rate: 6.757e-05 rev/day^2 Epoch rev: 6563 Checksum: 325
Satellite: OOREOS Catalog number: 37224 Epoch time: 11153.29456974 Element set: 0179 Inclination: 071.9726 deg RA of node: 071.8135 deg Eccentricity: 0.0020315 Arg of perigee: 307.7637 deg Mean anomaly: 052.1684 deg Mean motion: 14.77036357 rev/day Decay rate: 4.92e-06 rev/day^2 Epoch rev: 02867 Checksum: 309
Satellite: FO-69 Catalog number: 37227 Epoch time: 11271.30243364 Element set: 0147 Inclination: 071.9715 deg RA of node: 171.8914 deg Eccentricity: 0.0015364 Arg of perigee: 090.4086 deg Mean anomaly: 269.8836 deg Mean motion: 14.76664819 rev/day Decay rate: 1.151e-05 rev/day^2 Epoch rev: 02454 Checksum: 318
Satellite: NANOSALD Catalog number: 37361 Epoch time: 11242.25215765 Element set: 0351 Inclination: 071.9735 deg RA of node: 221.4469 deg Eccentricity: 0.0025730 Arg of perigee: 245.3422 deg Mean anomaly: 114.7284 deg Mean motion: 15.22200108 rev/day Decay rate: 1.80112e-03 rev/day^2 Epoch rev: 03331 Checksum: 248
Satellite: FO-70 Catalog number: 37380 Epoch time: 11271.33250115 Element set: 0280 Inclination: 071.9740 deg RA of node: 172.0569 deg Eccentricity: 0.0015990 Arg of perigee: 085.6662 deg Mean anomaly: 274.6348 deg Mean motion: 14.76428945 rev/day Decay rate: 1.087e-05 rev/day^2 Epoch rev: 04608 Checksum: 312
/EX SB KEPS @ AMSAT $ORB11272.W Orbital Elements 11272.WEATHER
HR AMSAT ORBITAL ELEMENTS FOR WEATHER SATELLITES FROM WA5QGD FORT WORTH,TX September 29, 2011 Send Subscribe/unsubscribe to KEPS at http://www.amsat.org/mailman/listinfo/keps BID: ORB11272.W TO ALL RADIO AMATEURS BT
Satellite: NOAA-10 Catalog number: 16969 Epoch time: 11271.73837103 Element set: 0652 Inclination: 098.6118 deg RA of node: 300.0827 deg Eccentricity: 0.0011504 Arg of perigee: 284.4891 deg Mean anomaly: 075.4994 deg Mean motion: 14.27480818 rev/day Decay rate: 2.11e-06 rev/day^2 Epoch rev: 30242 Checksum: 295
